CSS6923 ZHHH-ZGSZ

Flight info

Callsign CSS6923
Flight time 1h 30m
Altitude 32100
Route OLMIB W37 OMBEB R473 NOLON W90 POU W7 SAREX
Aircraft B738/M-SDE1E2E3FGHIJ2J3J4J5M1RWXY/LB1D1

Departure

Time 2026-04-23 06:04
Airport Wuhan Tianhe International Airport (ZHHH)

Arrival

Time 2026-04-23 07:34
Airport Shenzhen Bao'an International Airport (ZGSZ)
Time Latitude Longitude Altitude Speed Heading
2026-04-23 05:42 30.78799 114.21835 121 ft 0 kts 131°
2026-04-23 05:54 30.78807 114.21825 121 ft 2 kts 132°
2026-04-23 05:55 30.78818 114.21811 121 ft 2 kts 133°
2026-04-23 05:55 30.78829 114.21797 121 ft 2 kts 136°
2026-04-23 05:55 30.78842 114.21786 121 ft 2 kts 167°
2026-04-23 05:55 30.78855 114.21788 121 ft 1 kts 217°
2026-04-23 05:56 30.78859 114.21793 121 ft 0 kts 224°
2026-04-23 05:57 30.78859 114.21792 121 ft 1 kts 224°
2026-04-23 05:57 30.78858 114.21751 121 ft 9 kts 297°
2026-04-23 05:58 30.78904 114.21685 121 ft 11 kts 311°
2026-04-23 05:58 30.78892 114.21613 121 ft 11 kts 222°
2026-04-23 05:58 30.78833 114.21554 121 ft 12 kts 221°
2026-04-23 05:58 30.78770 114.21488 121 ft 14 kts 223°
2026-04-23 05:59 30.78687 114.21402 121 ft 18 kts 218°
2026-04-23 05:59 30.78583 114.21297 121 ft 21 kts 221°
2026-04-23 05:59 30.78466 114.21176 121 ft 24 kts 218°
2026-04-23 05:59 30.78332 114.21040 121 ft 26 kts 222°
2026-04-23 06:00 30.78196 114.20901 121 ft 26 kts 220°
2026-04-23 06:00 30.78058 114.20759 121 ft 28 kts 222°
2026-04-23 06:00 30.77909 114.20608 121 ft 29 kts 223°
2026-04-23 06:00 30.77766 114.20462 121 ft 27 kts 222°
2026-04-23 06:01 30.77625 114.20319 121 ft 27 kts 219°
2026-04-23 06:01 30.77482 114.20171 121 ft 28 kts 223°
2026-04-23 06:01 30.77334 114.20020 121 ft 29 kts 220°
2026-04-23 06:01 30.77180 114.19861 121 ft 28 kts 221°
2026-04-23 06:02 30.77147 114.19761 121 ft 11 kts 319°
2026-04-23 06:02 30.77195 114.19701 121 ft 11 kts 311°
2026-04-23 06:02 30.77258 114.19677 121 ft 10 kts 45°
2026-04-23 06:02 30.77277 114.19697 121 ft 0 kts 42°
2026-04-23 06:03 30.77369 114.19791 121 ft 51 kts 41°
2026-04-23 06:03 30.77820 114.20252 122 ft 120 kts 42°
2026-04-23 06:03 30.78589 114.21041 217 ft 170 kts 40°
2026-04-23 06:03 30.79523 114.22007 507 ft 184 kts 41°
2026-04-23 06:04 30.80464 114.22981 879 ft 182 kts 37°
2026-04-23 06:04 30.81607 114.23765 1295 ft 206 kts 24°
2026-04-23 06:04 30.83045 114.24458 1743 ft 236 kts 21°
2026-04-23 06:04 30.84557 114.25171 2747 ft 231 kts 21°
2026-04-23 06:05 30.86017 114.25762 3999 ft 214 kts 11°
2026-04-23 06:05 30.87503 114.25669 4854 ft 221 kts 344°
2026-04-23 06:05 30.88832 114.24715 5568 ft 231 kts 317°
2026-04-23 06:05 30.89817 114.23222 6437 ft 235 kts 306°
2026-04-23 06:06 30.90771 114.21643 7250 ft 239 kts 309°
2026-04-23 06:06 30.91819 114.20113 8058 ft 242 kts 312°
2026-04-23 06:06 30.92921 114.18638 8852 ft 246 kts 314°
2026-04-23 06:06 30.94068 114.17130 9664 ft 249 kts 313°
2026-04-23 06:07 30.95228 114.15605 10553 ft 248 kts 313°
2026-04-23 06:07 30.96262 114.14029 11357 ft 250 kts 299°
2026-04-23 06:07 30.96690 114.12066 12181 ft 253 kts 273°
2026-04-23 06:07 30.96333 114.10047 12932 ft 262 kts 249°
2026-04-23 06:08 30.95233 114.08301 13507 ft 278 kts 226°
2026-04-23 06:08 30.93633 114.06899 13931 ft 297 kts 218°
2026-04-23 06:08 30.91888 114.05486 14271 ft 315 kts 219°
2026-04-23 06:08 30.90091 114.03909 14591 ft 333 kts 221°
2026-04-23 06:09 30.88263 114.02175 14906 ft 349 kts 223°
2026-04-23 06:09 30.86371 114.00295 15474 ft 357 kts 224°
2026-04-23 06:09 30.84484 113.98396 16168 ft 361 kts 224°
2026-04-23 06:09 30.82583 113.96473 16922 ft 362 kts 224°
2026-04-23 06:10 30.80684 113.94548 17661 ft 363 kts 224°
2026-04-23 06:10 30.79426 113.93271 18135 ft 363 kts 224°
2026-04-23 06:10 30.77512 113.91330 18789 ft 366 kts 224°
2026-04-23 06:10 30.74926 113.88705 19591 ft 371 kts 225°
2026-04-23 06:11 30.73635 113.87395 19991 ft 373 kts 225°
2026-04-23 06:11 30.71634 113.85447 20620 ft 378 kts 220°
2026-04-23 06:11 30.69257 113.84046 21157 ft 391 kts 203°
2026-04-23 06:11 30.65619 113.83541 21844 ft 410 kts 181°
2026-04-23 06:12 30.63705 113.83924 22177 ft 419 kts 170°
2026-04-23 06:12 30.60974 113.85252 22660 ft 432 kts 156°
2026-04-23 06:12 30.55894 113.89075 23532 ft 440 kts 156°
2026-04-23 06:13 30.53143 113.90622 23966 ft 439 kts 162°
2026-04-23 06:13 30.50303 113.91931 24422 ft 440 kts 165°
2026-04-23 06:13 30.47432 113.93223 24883 ft 443 kts 164°
2026-04-23 06:13 30.44563 113.94557 25339 ft 446 kts 164°
2026-04-23 06:14 30.41683 113.95914 25773 ft 448 kts 164°
2026-04-23 06:14 30.38783 113.97286 26191 ft 450 kts 164°
2026-04-23 06:14 30.35872 113.98666 26594 ft 453 kts 165°
2026-04-23 06:14 30.32901 113.99778 26976 ft 443 kts 176°
2026-04-23 06:15 30.29885 113.99970 27435 ft 427 kts 192°
2026-04-23 06:15 30.27008 113.99346 27896 ft 416 kts 203°
2026-04-23 06:15 30.24299 113.98268 28414 ft 408 kts 209°
2026-04-23 06:15 30.21696 113.96985 28969 ft 403 kts 212°
2026-04-23 06:16 30.19198 113.95638 29559 ft 398 kts 212°
2026-04-23 06:16 30.16700 113.94285 30148 ft 394 kts 212°
2026-04-23 06:16 30.14227 113.92935 30673 ft 392 kts 213°
2026-04-23 06:16 30.11762 113.91598 31148 ft 390 kts 213°
2026-04-23 06:17 30.09293 113.90272 31481 ft 393 kts 212°
2026-04-23 06:17 30.06803 113.88943 31849 ft 393 kts 213°
2026-04-23 06:17 30.04313 113.87614 32050 ft 397 kts 212°
2026-04-23 06:17 30.01786 113.86267 32088 ft 403 kts 212°
2026-04-23 06:18 29.96610 113.83511 32093 ft 415 kts 212°
2026-04-23 06:18 29.91319 113.80698 32093 ft 420 kts 212°
2026-04-23 06:19 29.85704 113.78702 32092 ft 432 kts 199°
2026-04-23 06:19 29.79662 113.77920 32092 ft 440 kts 192°
2026-04-23 06:20 29.73535 113.77511 32092 ft 441 kts 192°
2026-04-23 06:20 29.67419 113.77095 32091 ft 440 kts 192°
2026-04-23 06:21 29.61301 113.76673 32091 ft 440 kts 192°
2026-04-23 06:21 29.55188 113.76249 32091 ft 440 kts 193°
2026-04-23 06:22 29.49075 113.75822 32091 ft 439 kts 193°
2026-04-23 06:22 29.42968 113.75398 32091 ft 439 kts 193°
2026-04-23 06:23 29.36868 113.74977 32090 ft 439 kts 193°
2026-04-23 06:23 29.30804 113.74558 32091 ft 438 kts 193°
2026-04-23 06:24 29.24727 113.74139 32091 ft 436 kts 193°
2026-04-23 06:24 29.18639 113.74072 32090 ft 443 kts 188°
2026-04-23 06:25 29.12466 113.74338 32090 ft 443 kts 188°
2026-04-23 06:25 29.06312 113.74547 32091 ft 442 kts 189°
2026-04-23 06:26 29.00169 113.74734 32091 ft 441 kts 189°
2026-04-23 06:26 28.94019 113.74914 32091 ft 441 kts 189°
2026-04-23 06:27 28.87886 113.75092 32091 ft 440 kts 189°
2026-04-23 06:27 28.81774 113.75269 32091 ft 439 kts 190°
2026-04-23 06:28 28.75715 113.75444 32091 ft 438 kts 190°
2026-04-23 06:28 28.69671 113.75325 32092 ft 430 kts 195°
2026-04-23 06:29 28.63718 113.74802 32092 ft 428 kts 196°
2026-04-23 06:29 28.57771 113.74331 32092 ft 427 kts 195°
2026-04-23 06:30 28.51879 113.73892 32093 ft 427 kts 195°
2026-04-23 06:30 28.45956 113.73456 32093 ft 426 kts 196°
2026-04-23 06:31 28.40036 113.73023 32093 ft 426 kts 196°
2026-04-23 06:31 28.34123 113.72591 32093 ft 426 kts 196°
2026-04-23 06:32 28.28202 113.72162 32093 ft 426 kts 196°
2026-04-23 06:32 28.22283 113.71735 32095 ft 426 kts 196°
2026-04-23 06:33 28.16374 113.71300 32093 ft 425 kts 196°
2026-04-23 06:33 28.10476 113.70848 32093 ft 424 kts 197°
2026-04-23 06:34 28.04631 113.70322 32093 ft 424 kts 197°
2026-04-23 06:34 27.98755 113.69797 32093 ft 424 kts 197°
2026-04-23 06:35 27.92870 113.69269 32093 ft 424 kts 197°
2026-04-23 06:35 27.86984 113.68743 32092 ft 424 kts 197°
2026-04-23 06:36 27.81105 113.68219 32092 ft 424 kts 197°
2026-04-23 06:36 27.75216 113.67695 32092 ft 424 kts 197°
2026-04-23 06:37 27.69357 113.67174 32091 ft 425 kts 196°
2026-04-23 06:37 27.63456 113.66659 32090 ft 427 kts 195°
2026-04-23 06:38 27.57471 113.66499 32089 ft 432 kts 192°
2026-04-23 06:38 27.51472 113.66419 32089 ft 431 kts 192°
2026-04-23 06:39 27.45472 113.66299 32088 ft 430 kts 193°
2026-04-23 06:39 27.39482 113.66170 32087 ft 430 kts 193°
2026-04-23 06:40 27.33519 113.66039 32086 ft 431 kts 193°
2026-04-23 06:40 27.27502 113.65906 32084 ft 433 kts 193°
2026-04-23 06:41 27.21484 113.65791 32080 ft 435 kts 191°
2026-04-23 06:41 27.15352 113.66500 32080 ft 452 kts 181°
2026-04-23 06:42 27.09167 113.68234 32078 ft 462 kts 176°
2026-04-23 06:42 27.02977 113.70108 32076 ft 459 kts 177°
2026-04-23 06:43 26.96799 113.71943 32074 ft 459 kts 177°
2026-04-23 06:43 26.90621 113.73764 32072 ft 460 kts 177°
2026-04-23 06:44 26.84448 113.75579 32069 ft 461 kts 177°
2026-04-23 06:44 26.78244 113.77402 32067 ft 461 kts 177°
2026-04-23 06:45 26.72038 113.79244 32065 ft 463 kts 176°
2026-04-23 06:45 26.65836 113.81211 32062 ft 463 kts 176°
2026-04-23 06:46 26.59624 113.83158 32060 ft 463 kts 176°
2026-04-23 06:46 26.53420 113.85097 32057 ft 463 kts 176°
2026-04-23 06:47 26.47205 113.87014 32054 ft 462 kts 177°
2026-04-23 06:47 26.40989 113.88784 32052 ft 462 kts 177°
2026-04-23 06:48 26.34768 113.90572 32049 ft 462 kts 177°
2026-04-23 06:48 26.28542 113.92377 32046 ft 462 kts 177°
2026-04-23 06:49 26.22360 113.94162 32043 ft 462 kts 177°
2026-04-23 06:49 26.16133 113.95955 32040 ft 462 kts 177°
2026-04-23 06:50 26.09907 113.97746 32037 ft 462 kts 177°
2026-04-23 06:50 26.03675 113.99537 32034 ft 462 kts 177°
2026-04-23 06:51 25.97444 114.01361 32031 ft 463 kts 176°
2026-04-23 06:51 25.91219 114.03206 32029 ft 463 kts 176°
2026-04-23 06:52 25.85035 114.05035 32026 ft 463 kts 176°
2026-04-23 06:52 25.78805 114.06875 32023 ft 463 kts 176°
2026-04-23 06:53 25.72582 114.08711 32020 ft 463 kts 176°
2026-04-23 06:53 25.66326 114.10560 32016 ft 465 kts 176°
2026-04-23 06:54 25.60081 114.12405 32011 ft 465 kts 176°
2026-04-23 06:54 25.53820 114.14250 32008 ft 466 kts 176°
2026-04-23 06:55 25.47544 114.16097 32005 ft 467 kts 176°
2026-04-23 06:55 25.41254 114.17945 32003 ft 468 kts 175°
2026-04-23 06:56 25.34948 114.19803 32000 ft 469 kts 175°
2026-04-23 06:56 25.28637 114.21652 31998 ft 470 kts 175°
2026-04-23 06:57 25.22353 114.23491 31996 ft 470 kts 175°
2026-04-23 06:57 25.16009 114.25345 31993 ft 472 kts 175°
2026-04-23 06:58 25.09646 114.26533 31991 ft 455 kts 188°
2026-04-23 06:58 25.03468 114.25950 31990 ft 441 kts 199°
2026-04-23 06:59 24.97447 114.24666 31988 ft 441 kts 200°
2026-04-23 06:59 24.91449 114.23360 31987 ft 443 kts 200°
2026-04-23 07:00 24.85388 114.22058 31985 ft 445 kts 200°
2026-04-23 07:00 24.79295 114.20757 31979 ft 447 kts 199°
2026-04-23 07:01 24.73176 114.19449 31977 ft 448 kts 199°
2026-04-23 07:01 24.67046 114.18141 31976 ft 450 kts 199°
2026-04-23 07:02 24.61926 114.17046 31976 ft 451 kts 199°
2026-04-23 07:02 24.56005 114.15787 31976 ft 453 kts 199°
2026-04-23 07:03 24.48766 114.14252 31971 ft 454 kts 199°
2026-04-23 07:03 24.43598 114.13156 31967 ft 454 kts 199°
2026-04-23 07:04 24.37431 114.11698 31967 ft 449 kts 205°
2026-04-23 07:04 24.31750 114.09076 31967 ft 439 kts 214°
2026-04-23 07:05 24.26612 114.05593 31969 ft 432 kts 223°
2026-04-23 07:05 24.21558 114.02028 31967 ft 435 kts 218°
2026-04-23 07:06 24.16423 113.98511 31967 ft 436 kts 219°
2026-04-23 07:06 24.11335 113.94893 31967 ft 432 kts 223°
2026-04-23 07:07 24.06765 113.90685 31968 ft 427 kts 228°
2026-04-23 07:07 24.02352 113.86323 31969 ft 428 kts 228°
2026-04-23 07:08 23.97929 113.81971 31970 ft 428 kts 228°
2026-04-23 07:08 23.93499 113.77625 31970 ft 428 kts 228°
2026-04-23 07:09 23.89167 113.73379 31967 ft 412 kts 228°
2026-04-23 07:09 23.87067 113.71323 31965 ft 398 kts 229°
2026-04-23 07:09 23.85031 113.69326 31967 ft 390 kts 229°
2026-04-23 07:10 23.81026 113.65383 31766 ft 386 kts 229°
2026-04-23 07:10 23.79042 113.63437 31466 ft 379 kts 229°
2026-04-23 07:10 23.77088 113.61517 31037 ft 376 kts 229°
2026-04-23 07:11 23.75159 113.59618 30616 ft 373 kts 229°
2026-04-23 07:11 23.73231 113.57729 30199 ft 371 kts 229°
2026-04-23 07:11 23.71316 113.55856 29789 ft 368 kts 229°
2026-04-23 07:12 23.67518 113.52151 28970 ft 364 kts 228°
2026-04-23 07:12 23.65661 113.50341 28564 ft 361 kts 228°
2026-04-23 07:12 23.63794 113.48522 28153 ft 359 kts 228°
2026-04-23 07:12 23.61940 113.46716 27745 ft 356 kts 228°
2026-04-23 07:13 23.60098 113.44923 27339 ft 354 kts 228°
2026-04-23 07:13 23.58264 113.43138 26933 ft 352 kts 228°
2026-04-23 07:13 23.56447 113.41370 26530 ft 349 kts 227°
2026-04-23 07:13 23.54565 113.39693 26125 ft 351 kts 221°
2026-04-23 07:14 23.52448 113.38336 25731 ft 355 kts 213°
2026-04-23 07:14 23.50176 113.37261 25331 ft 357 kts 208°
2026-04-23 07:14 23.47846 113.36331 24932 ft 356 kts 206°
2026-04-23 07:14 23.45507 113.35462 24536 ft 354 kts 206°
2026-04-23 07:15 23.43180 113.34597 24141 ft 352 kts 206°
2026-04-23 07:15 23.40870 113.33735 23750 ft 350 kts 206°
2026-04-23 07:15 23.38572 113.32875 23359 ft 347 kts 206°
2026-04-23 07:15 23.36295 113.32021 22971 ft 345 kts 206°
2026-04-23 07:16 23.34029 113.31171 22584 ft 343 kts 206°
2026-04-23 07:16 23.31792 113.30326 22201 ft 341 kts 206°
2026-04-23 07:16 23.29550 113.29479 21818 ft 339 kts 206°
2026-04-23 07:16 23.27329 113.28641 21438 ft 337 kts 205°
2026-04-23 07:17 23.25118 113.27811 21060 ft 335 kts 205°
2026-04-23 07:17 23.22935 113.26990 20686 ft 333 kts 205°
2026-04-23 07:17 23.20738 113.26166 20310 ft 331 kts 205°
2026-04-23 07:17 23.18637 113.25378 19952 ft 329 kts 205°
2026-04-23 07:18 23.16484 113.24571 19582 ft 327 kts 205°
2026-04-23 07:18 23.14340 113.23767 19214 ft 325 kts 205°
2026-04-23 07:18 23.12234 113.22980 18852 ft 323 kts 205°
2026-04-23 07:18 23.10119 113.22187 18487 ft 321 kts 205°
2026-04-23 07:19 23.08014 113.21398 18119 ft 319 kts 204°
2026-04-23 07:19 23.05909 113.20622 17749 ft 319 kts 202°
2026-04-23 07:19 23.03688 113.20309 17372 ft 329 kts 183°
2026-04-23 07:19 23.01434 113.20880 16996 ft 340 kts 163°
2026-04-23 07:20 22.99416 113.22291 16525 ft 353 kts 142°
2026-04-23 07:20 22.97909 113.24412 16169 ft 360 kts 122°
2026-04-23 07:20 22.97075 113.26983 15813 ft 363 kts 105°
2026-04-23 07:20 22.96522 113.29646 15449 ft 361 kts 107°
2026-04-23 07:21 22.95790 113.32236 15086 ft 357 kts 114°
2026-04-23 07:21 22.94786 113.34683 14727 ft 353 kts 120°
2026-04-23 07:21 22.93631 113.37025 14371 ft 350 kts 122°
2026-04-23 07:21 22.92476 113.39351 14014 ft 349 kts 121°
2026-04-23 07:22 22.91354 113.41670 13665 ft 347 kts 121°
2026-04-23 07:22 22.90244 113.43985 13317 ft 345 kts 121°
2026-04-23 07:22 22.88933 113.46123 12964 ft 336 kts 137°
2026-04-23 07:22 22.87141 113.47593 12678 ft 322 kts 158°
2026-04-23 07:23 22.85031 113.48299 12189 ft 315 kts 178°
2026-04-23 07:23 22.82886 113.48184 11820 ft 306 kts 194°
2026-04-23 07:23 22.80769 113.47778 11538 ft 303 kts 191°
2026-04-23 07:23 22.78707 113.47584 11233 ft 301 kts 188°
2026-04-23 07:24 22.76625 113.47451 10896 ft 300 kts 187°
2026-04-23 07:24 22.74545 113.47326 10555 ft 298 kts 187°
2026-04-23 07:24 22.72484 113.47170 10214 ft 296 kts 187°
2026-04-23 07:24 22.70486 113.47021 10069 ft 288 kts 187°
2026-04-23 07:25 22.68491 113.46873 9993 ft 277 kts 187°
2026-04-23 07:25 22.66584 113.46731 9763 ft 273 kts 187°
2026-04-23 07:25 22.64696 113.46591 9448 ft 272 kts 187°
2026-04-23 07:25 22.62814 113.46452 9135 ft 271 kts 187°
2026-04-23 07:26 22.60943 113.46314 8822 ft 269 kts 187°
2026-04-23 07:26 22.59073 113.46334 8496 ft 272 kts 172°
2026-04-23 07:26 22.57385 113.47270 8186 ft 280 kts 141°
2026-04-23 07:26 22.56321 113.49043 7865 ft 286 kts 116°
2026-04-23 07:27 22.55818 113.51152 7372 ft 294 kts 102°
2026-04-23 07:27 22.55457 113.53310 7166 ft 289 kts 103°
2026-04-23 07:27 22.55085 113.55443 6840 ft 289 kts 103°
2026-04-23 07:27 22.54717 113.57579 6514 ft 288 kts 103°
2026-04-23 07:28 22.54350 113.59700 6189 ft 287 kts 103°
2026-04-23 07:28 22.53981 113.61820 5863 ft 286 kts 103°
2026-04-23 07:28 22.53613 113.63934 5542 ft 285 kts 103°
2026-04-23 07:28 22.53249 113.66020 5366 ft 278 kts 103°
2026-04-23 07:29 22.52896 113.68037 5291 ft 267 kts 103°
2026-04-23 07:29 22.52558 113.69970 5216 ft 257 kts 103°
2026-04-23 07:29 22.52232 113.71831 5137 ft 247 kts 103°
2026-04-23 07:29 22.51952 113.73641 4947 ft 243 kts 98°
2026-04-23 07:30 22.51971 113.75494 4474 ft 247 kts 88°
2026-04-23 07:30 22.52107 113.77316 3968 ft 240 kts 87°
2026-04-23 07:30 22.52246 113.79051 3534 ft 229 kts 87°
2026-04-23 07:30 22.52378 113.80739 3081 ft 221 kts 87°
2026-04-23 07:31 22.52503 113.82374 2634 ft 214 kts 87°
2026-04-23 07:31 22.52631 113.83950 2225 ft 207 kts 83°
2026-04-23 07:31 22.53197 113.85320 1942 ft 196 kts 48°
2026-04-23 07:31 22.54355 113.85961 1803 ft 191 kts
2026-04-23 07:32 22.55622 113.85649 1599 ft 185 kts 335°
2026-04-23 07:32 22.56754 113.85025 1345 ft 178 kts 329°
2026-04-23 07:32 22.57811 113.84424 1101 ft 166 kts 332°
2026-04-23 07:32 22.58812 113.83869 857 ft 157 kts 332°
2026-04-23 07:33 22.59747 113.83354 680 ft 146 kts 332°
2026-04-23 07:33 22.60652 113.82861 418 ft 147 kts 333°
2026-04-23 07:33 22.61553 113.82378 264 ft 143 kts 333°
2026-04-23 07:33 22.62433 113.81887 87 ft 142 kts 331°
2026-04-23 07:34 22.63285 113.81416 21 ft 124 kts 332°
2026-04-23 07:34 22.63815 113.81125 21 ft 46 kts 332°
2026-04-23 07:34 22.64064 113.80989 21 ft 38 kts 334°
2026-04-23 07:34 22.64268 113.80901 21 ft 21 kts 359°
2026-04-23 07:35 22.64385 113.80903 21 ft 14 kts
2026-04-23 07:35 22.64462 113.80912 21 ft 8 kts 25°
2026-04-23 07:35 22.64498 113.80952 21 ft 5 kts 63°
2026-04-23 07:35 22.64516 113.80989 21 ft 8 kts 63°
2026-04-23 07:36 22.64533 113.81055 21 ft 7 kts 126°
2026-04-23 07:36 22.64460 113.81088 21 ft 12 kts 153°
2026-04-23 07:36 22.64369 113.81139 21 ft 15 kts 155°
2026-04-23 07:36 22.64293 113.81194 21 ft 9 kts 90°
2026-04-23 07:37 22.64328 113.81269 21 ft 14 kts 65°
2026-04-23 07:37 22.64294 113.81348 21 ft 9 kts 154°
2026-04-23 07:37 22.64209 113.81394 21 ft 17 kts 149°
2026-04-23 07:37 22.64174 113.81465 21 ft 9 kts 58°
2026-04-23 07:38 22.64191 113.81498 21 ft 3 kts 62°
2026-04-23 07:38 22.64194 113.81504 21 ft 0 kts 61°